AUA14W EDDL-LOWW

Flight info

Callsign AUA14W
Flight time N/A
Altitude 35000
Route DODEN1T/23L DODEN Y853 BOMBI DCT ESATI DCT BARSU DCT EKSOS DCT LULAR DCT RUDAP DCT BUDEX BUDEX2W
Aircraft B772/H-SDE2E3FGHIJ5LORVWXY/LB1D1

Departure

Time 2026-05-01 15:32
Airport Düsseldorf Airport (EDDL)

Arrival

Time N/A
Airport Vienna International Airport (LOWW)
Time Latitude Longitude Altitude Speed Heading
2026-05-01 15:10 51.27942 6.76171 133 ft 0 kts 91°
2026-05-01 15:18 51.27943 6.76118 133 ft 2 kts 91°
2026-05-01 15:18 51.27941 6.76083 132 ft 4 kts 64°
2026-05-01 15:19 51.27888 6.76047 133 ft 0 kts
2026-05-01 15:21 51.27890 6.76047 133 ft 1 kts
2026-05-01 15:21 51.27910 6.76048 131 ft 5 kts
2026-05-01 15:21 51.27952 6.76049 132 ft 7 kts
2026-05-01 15:22 51.28055 6.76048 125 ft 8 kts 357°
2026-05-01 15:22 51.28107 6.76027 130 ft 8 kts 347°
2026-05-01 15:22 51.28151 6.76067 128 ft 8 kts 52°
2026-05-01 15:23 51.28184 6.76135 128 ft 8 kts 53°
2026-05-01 15:23 51.28220 6.76212 130 ft 10 kts 53°
2026-05-01 15:23 51.28260 6.76296 122 ft 10 kts 53°
2026-05-01 15:23 51.28301 6.76382 126 ft 10 kts 53°
2026-05-01 15:24 51.28341 6.76465 125 ft 10 kts 53°
2026-05-01 15:24 51.28381 6.76549 125 ft 10 kts 52°
2026-05-01 15:24 51.28422 6.76635 124 ft 10 kts 53°
2026-05-01 15:24 51.28463 6.76720 125 ft 10 kts 53°
2026-05-01 15:25 51.28503 6.76805 123 ft 10 kts 52°
2026-05-01 15:25 51.28544 6.76891 127 ft 10 kts 53°
2026-05-01 15:25 51.28593 6.76994 128 ft 12 kts 52°
2026-05-01 15:25 51.28646 6.77103 128 ft 12 kts 52°
2026-05-01 15:26 51.28698 6.77213 130 ft 12 kts 53°
2026-05-01 15:26 51.28750 6.77322 137 ft 12 kts 52°
2026-05-01 15:26 51.28802 6.77431 129 ft 12 kts 53°
2026-05-01 15:26 51.28854 6.77541 128 ft 12 kts 53°
2026-05-01 15:27 51.28906 6.77651 124 ft 12 kts 53°
2026-05-01 15:27 51.28958 6.77760 131 ft 12 kts 52°
2026-05-01 15:27 51.29011 6.77869 129 ft 12 kts 52°
2026-05-01 15:28 51.29114 6.78089 137 ft 12 kts 53°
2026-05-01 15:28 51.29167 6.78197 140 ft 12 kts 52°
2026-05-01 15:28 51.29219 6.78307 145 ft 12 kts 53°
2026-05-01 15:29 51.29304 6.78485 152 ft 9 kts 52°
2026-05-01 15:29 51.29345 6.78559 156 ft 9 kts 36°
2026-05-01 15:29 51.29446 6.78566 157 ft 9 kts 354°
2026-05-01 15:30 51.29545 6.78546 157 ft 4 kts 316°
2026-05-01 15:31 51.29536 6.78507 156 ft 4 kts 233°
2026-05-01 15:31 51.28966 6.77303 128 ft 143 kts 233°
2026-05-01 15:32 51.27524 6.74329 1134 ft 184 kts 227°
2026-05-01 15:32 51.25966 6.70920 2831 ft 192 kts 227°
2026-05-01 15:33 51.23474 6.65551 4764 ft 210 kts 230°
2026-05-01 15:34 51.19694 6.63752 6304 ft 206 kts 171°